Volver al catálogo

COSMOS 2251 DEB

ActivoLEO
NORAD 36049·DEBRIS·🇷🇺 Russia

Lanzado Jun 16, 1993 desde Plesetsk Cosmodrome

Loading…

Próximos Pases (próximas 24 horas)

TLE

ActualizadoSource: Space-Track

Época: Sep 13, 2026, 13:03 UTC

1 36049U 93036AXL 26256.54439645  .00002495  00000-0  47363-3 0  9990
2 36049  74.0298 311.5196 0013291 323.5689  36.4574 14.64719500893851

Sigue COSMOS 2251 DEB en tiempo real con AllMySat

Download on the App Store